Wind_Speed
80 82 82 82 81 79 77 75 73 73 72 70 68 66 65 64 64 64 64 62 59 57 55 53 52 51 50 49 49 48 48 47 47 48 49 49 48 47 46 44 43 43 45 46 46 45 42 40 39 39 37 35 35 36 36 35 33 31 31 33 35 36 36 35 34 35 36 36 36 36 37 38 39 40 42 43 44 45 47 50 52 54 56 58 60
77 81 82 83 84 82 79 77 76 75 73 72 69 67 66 66 66 66 65 62 60 58 56 55 54 52 50 50 50 49 49 49 48 48 49 49 49 48 47 45 44 44 44 44 45 44 41 39 38 38 37 35 34 35 35 34 32 30 31 33 35 35 35 35 34 34 34 35 36 37 37 38 40 41 43 44 45 47 50 52 54 55 57 59 61
74 76 79 80 83 85 82 79 78 76 75 73 71 70 68 68 68 68 66 64 61 59 58 57 56 53 51 51 51 50 50 50 49 48 49 50 51 50 48 46 44 43 42 42 42 43 41 39 37 37 36 35 34 34 35 33 31 29 31 33 34 35 35 35 34 34 34 36 37 37 37 38 40 42 43 45 47 50 53 54 55 57 59 61 62
76 71 71 71 75 80 82 81 79 79 77 75 73 72 72 71 70 69 68 66 63 61 60 59 58 55 53 53 53 53 52 51 50 49 50 52 53 51 49 46 44 42 40 38 40 42 41 39 37 36 36 34 33 33 34 32 30 29 30 33 34 34 35 34 34 35 36 37 38 38 39 39 41 43 44 46 49 52 54 55 56 57 59 61 63
82 74 70 71 71 72 73 76 79 80 79 78 76 75 75 74 72 71 70 68 66 64 63 62 60 57 55 54 54 55 54 52 51 51 52 54 54 52 48 46 44 41 38 36 38 41 41 38 37 35 34 34 33 32 33 31 29 28 30 32 33 34 35 34 35 36 37 39 39 39 40 40 42 44 46 47 50 53 55 55 56 58 60 61 63
85 79 74 74 71 69 68 69 75 80 80 80 79 79 78 77 75 73 72 70 69 68 66 64 62 60 57 56 56 56 55 54 54 54 55 54 53 51 47 45 43 41 39 36 36 40 40 37 35 34 33 33 32 32 32 31 29 28 30 33 33 34 35 35 36 37 39 40 40 40 40 40 42 44 46 48 51 53 55 54 55 57 59 61 63
86 82 79 77 71 70 71 67 67 74 79 80 81 81 81 80 78 76 74 73 71 70 68 65 63 61 59 58 58 57 56 56 56 56 56 54 52 49 45 44 43 41 40 36 35 38 38 35 34 32 32 33 32 32 31 30 29 29 31 33 34 35 36 36 37 39 40 41 42 41 40 40 41 42 45 48 51 53 52 52 54 56 57 60 63
88 82 81 80 71 68 73 71 66 69 74 77 80 81 82 81 80 78 77 75 73 70 68 66 64 63 61 60 59 58 57 57 57 57 56 54 51 47 44 43 42 41 40 36 33 36 37 33 32 31 31 32 33 31 31 30 29 30 31 33 34 35 36 36 38 39 41 42 43 42 40 39 39 40 43 47 50 50 50 50 54 55 56 59 62
93 86 82 79 72 67 69 68 66 71 76 78 79 79 80 81 80 79 78 76 74 72 70 68 66 65 63 61 60 59 57 57 58 58 56 53 50 47 44 43 42 41 39 34 30 34 35 31 30 30 31 32 32 31 30 30 29 30 32 33 34 35 36 37 38 40 43 44 44 42 39 38 38 40 43 46 48 48 49 52 55 56 57 60 61
98 94 89 84 78 72 69 67 68 75 82 85 84 80 79 80 80 79 78 77 76 74 72 70 68 66 65 63 61 59 57 57 58 58 55 52 50 47 44 43 41 39 36 31 28 31 34 30 28 29 31 31 31 30 30 29 30 31 33 34 34 34 36 37 39 42 45 44 43 41 39 38 39 42 44 47 48 49 50 53 55 57 59 60 60
100 98 97 95 89 82 76 72 72 78 84 87 86 84 82 80 78 76 76 75 75 74 72 71 69 67 66 63 61 59 56 56 57 56 54 52 50 46 44 42 40 37 33 28 26 29 33 30 27 28 30 31 30 30 29 29 29 31 33 34 34 34 36 37 40 43 43 41 40 39 39 40 42 45 47 48 49 50 51 54 56 57 59 60 60
103 101 100 100 98 92 85 78 74 78 85 87 86 86 85 81 77 73 72 72 72 72 72 70 69 68 65 63 61 58 55 55 56 55 52 49 46 43 42 40 38 35 31 27 26 29 32 30 27 27 30 31 30 29 29 29 29 31 33 33 34 35 36 37 40 41 40 39 40 40 40 43 45 47 49 49 50 51 53 54 56 58 59 59 60
104 105 103 102 101 98 94 89 81 77 79 82 84 84 82 80 75 69 69 70 69 69 69 68 67 66 63 61 59 56 54 54 54 51 46 43 41 40 39 38 36 33 30 27 27 29 32 31 27 26 29 30 30 29 29 29 30 31 33 33 34 35 36 37 38 39 39 41 42 42 43 45 47 48 48 48 50 51 53 55 57 58 59 59 59
104 106 105 104 103 101 99 99 93 81 74 75 78 79 78 78 73 67 65 66 64 63 64 65 64 62 61 60 57 53 51 51 50 47 42 40 39 38 37 36 35 32 30 28 28 30 33 32 29 27 29 30 30 30 30 30 30 32 33 34 34 35 36 36 37 39 41 43 44 44 44 46 47 48 48 49 50 51 54 56 57 58 58 58 59
102 106 107 106 105 103 101 103 100 88 76 72 73 74 74 75 71 64 60 59 59 58 57 58 58 58 58 57 54 51 50 49 48 46 43 41 40 38 36 35 34 33 32 30 29 31 34 33 30 29 29 30 31 31 31 31 31 33 34 35 35 36 36 37 38 40 43 45 45 45 46 47 48 48 49 49 50 52 54 56 56 57 58 58 60
100 104 106 106 106 105 104 103 102 94 82 72 68 68 70 70 68 62 55 53 56 57 55 56 57 57 57 56 54 53 51 50 50 48 45 43 42 38 35 34 34 34 33 32 31 32 35 36 33 30 30 31 31 32 33 32 32 34 35 36 37 37 37 37 39 42 44 45 46 46 46 47 48 48 49 50 51 52 54 56 56 58 59 59 60
100 102 105 107 107 108 107 106 106 103 94 80 69 65 66 66 66 63 57 53 54 57 57 57 57 56 57 57 56 56 54 52 52 50 46 45 42 37 34 34 35 36 35 34 34 33 36 38 36 33 31 32 32 33 34 34 33 34 36 37 38 38 37 38 40 42 44 45 46 46 46 46 48 49 50 51 52 53 55 56 58 59 60 59 59
100 102 104 107 108 109 110 111 110 109 102 88 75 68 65 64 65 66 62 57 54 54 55 57 56 56 57 57 57 58 57 55 54 51 47 44 40 36 35 36 37 38 38 37 37 37 38 40 40 37 34 33 33 34 35 35 34 34 36 37 38 38 38 39 40 43 44 46 46 46 46 47 49 50 51 52 54 54 56 58 59 60 60 59 59
97 101 103 106 108 110 112 113 112 111 103 90 79 73 70 68 67 66 64 61 59 56 55 56 57 57 58 57 57 57 57 56 55 51 48 44 41 38 37 37 39 40 41 41 41 40 40 41 43 42 38 35 35 35 36 36 36 36 36 37 38 39 40 40 41 42 45 46 46 47 47 48 51 52 52 54 55 55 56 58 60 61 60 59 59
93 97 101 104 107 109 110 111 111 110 105 93 82 77 76 74 71 69 67 64 63 63 62 61 59 57 56 57 57 56 55 55 55 53 50 47 44 41 39 39 40 42 43 43 44 43 43 44 46 45 42 38 37 36 36 37 37 37 38 38 38 39 40 40 40 43 45 46 46 47 48 50 52 53 52 54 56 55 56 58 60 61 61 59 60
88 92 96 100 104 106 107 106 106 106 106 99 90 84 82 80 76 74 71 68 66 65 65 65 63 59 55 53 55 57 57 57 57 55 53 50 47 44 43 43 44 46 45 45 45 45 45 46 47 48 45 41 40 38 37 37 38 39 39 38 38 39 40 40 41 43 46 46 47 48 49 51 53 53 51 54 56 56 56 58 61 62 61 60 60
82 86 90 94 98 101 102 102 100 101 103 102 98 93 91 88 83 78 75 72 69 68 67 66 65 62 59 56 54 55 58 60 60 59 57 54 51 48 46 47 50 50 48 48 49 49 48 47 48 49 47 44 43 41 38 38 40 41 41 40 39 40 41 41 42 44 45 47 47 48 49 52 53 52 51 55 58 57 57 58 60 62 62 60 59
75 79 84 88 91 94 97 97 97 97 98 99 99 96 94 92 87 82 78 75 73 71 70 67 66 64 63 59 55 53 57 61 64 64 62 59 57 53 50 51 53 52 50 52 54 53 50 48 47 49 50 47 44 43 41 41 41 42 42 41 41 41 41 41 43 44 46 47 47 48 50 51 51 49 51 55 58 58 58 59 60 62 62 59 58
72 76 81 85 88 90 91 92 93 93 94 95 95 92 91 89 87 84 81 78 76 75 73 71 68 66 65 62 58 56 58 63 66 68 67 65 63 59 55 53 53 52 51 53 56 55 53 49 48 50 52 50 46 45 44 43 43 43 43 42 41 42 41 42 44 45 46 47 48 49 50 50 49 49 51 55 58 58 59 59 59 62 62 59 58
70 73 77 80 84 86 87 87 88 89 89 90 89 88 87 86 86 85 83 81 78 76 75 74 72 70 68 67 65 63 63 64 66 69 70 69 66 62 59 56 53 52 53 55 56 56 54 52 50 51 55 53 48 46 45 44 45 45 43 42 42 42 42 43 44 45 46 47 48 49 50 50 49 50 52 55 58 59 59 59 60 62 61 58 59
66 68 70 73 78 82 84 84 85 85 85 84 84 84 84 85 86 86 85 82 80 78 77 76 75 73 71 70 70 70 69 67 66 67 68 69 68 66 64 59 54 54 57 58 59 58 56 55 54 55 57 54 47 44 44 45 45 45 44 43 43 42 42 43 44 45 45 45 46 49 51 51 51 52 54 56 58 59 59 59 60 62 60 58 59
61 63 65 69 73 77 80 83 83 83 83 81 81 81 82 84 86 86 85 83 81 80 78 77 77 76 74 72 72 73 73 72 70 67 67 68 68 69 69 63 56 56 58 60 62 62 61 59 57 58 56 50 44 42 43 44 46 46 46 46 44 42 42 43 44 45 45 45 46 48 50 51 51 52 54 56 58 59 58 58 60 61 60 59 60
58 60 63 67 71 75 78 80 81 82 82 81 80 80 81 83 84 85 85 83 82 82 81 79 78 78 77 74 74 73 72 71 70 67 66 65 63 65 68 65 60 59 60 62 64 65 63 60 58 58 53 45 41 43 46 47 49 49 49 48 45 42 43 44 44 44 45 45 45 47 49 51 52 52 53 56 58 57 57 59 60 61 60 59 60
55 58 61 65 70 74 76 77 79 79 80 80 80 79 80 82 83 84 86 85 81 82 84 81 79 80 79 76 74 73 72 71 71 70 67 63 61 62 63 62 63 64 65 67 68 66 64 60 57 56 50 42 40 45 47 48 49 49 48 48 46 44 44 44 43 43 44 45 45 48 51 53 53 52 54 57 58 57 57 59 61 61 61 60 60
52 54 57 62 68 72 74 75 76 77 77 78 79 78 79 82 82 83 88 89 85 82 83 82 79 80 79 76 74 75 76 75 74 71 66 63 62 62 60 60 63 66 67 70 70 66 63 60 56 53 48 42 41 44 45 46 48 48 47 47 46 44 44 43 43 44 45 46 48 51 53 53 53 54 56 59 59 57 57 59 61 62 62 60 60
51 54 55 57 61 68 73 74 74 76 76 76 77 77 78 81 81 81 86 92 90 84 82 80 79 78 76 75 75 76 76 75 73 68 64 63 64 64 61 60 61 64 68 71 69 63 61 59 55 51 46 43 43 43 43 45 46 46 46 48 47 44 42 43 46 48 48 49 50 51 52 53 54 57 58 58 58 57 58 60 62 62 62 61 60
50 55 58 59 60 65 71 72 73 74 75 75 76 76 77 79 80 79 83 89 91 87 83 81 79 78 76 76 76 74 73 72 71 68 66 66 66 65 62 59 58 63 69 69 64 59 57 56 56 53 48 46 45 43 42 44 45 44 46 48 48 46 44 45 47 49 49 50 49 50 53 56 58 59 58 58 58 58 60 62 63 63 63 62 62
46 51 56 59 61 64 68 71 72 73 74 74 74 75 76 78 79 78 79 84 88 87 85 83 81 79 78 78 77 74 72 72 72 71 69 69 69 67 63 57 57 64 68 64 58 56 55 56 57 56 53 51 48 44 43 45 44 43 46 49 49 48 47 47 47 47 48 48 49 52 57 61 62 60 59 59 60 61 63 63 63 63 63 62 63
41 46 50 55 58 61 65 69 71 71 72 72 72 73 75 78 79 77 76 80 84 85 85 84 83 82 81 79 77 74 72 72 72 72 72 72 72 70 64 58 57 63 66 61 56 55 57 56 55 54 54 52 48 45 46 47 44 43 46 49 49 49 48 47 46 46 45 47 49 53 58 62 63 63 61 61 63 64 64 64 64 63 63 63 64
36 41 46 51 55 58 62 66 69 70 70 71 71 72 73 76 77 77 75 76 80 83 84 85 85 85 83 79 76 74 72 71 71 72 73 74 75 71 64 58 57 59 62 62 59 57 58 57 53 53 55 52 47 47 50 49 46 44 46 48 49 49 49 48 47 44 42 43 46 51 56 62 65 65 63 64 66 66 65 64 64 63 63 65 66
33 37 42 47 51 55 59 63 65 67 68 69 69 71 72 73 74 74 73 74 77 81 83 84 85 84 83 80 77 75 74 72 72 73 74 75 75 69 61 56 56 56 59 62 62 60 59 57 54 55 55 51 47 49 51 50 47 45 46 47 47 48 49 49 46 42 40 41 45 52 58 64 67 66 65 66 67 66 65 64 64 64 65 67 66
32 36 39 44 48 52 56 60 63 66 68 68 68 69 70 71 71 70 70 71 74 79 83 85 84 83 82 80 78 76 75 73 72 73 74 74 71 66 60 56 56 56 57 60 61 61 61 60 57 56 54 51 50 53 53 52 51 49 46 45 45 47 50 51 49 46 45 47 52 59 63 65 66 67 67 67 67 66 65 64 64 65 67 68 66
33 36 39 42 46 50 54 58 62 66 67 68 69 69 69 69 68 68 68 69 72 77 82 86 86 83 82 81 79 77 76 73 71 72 72 70 66 63 60 59 58 57 58 59 61 63 64 63 61 59 56 54 55 56 56 56 56 54 49 46 46 48 52 55 54 53 54 56 59 62 64 65 66 68 68 67 66 65 64 64 65 67 68 67 65
32 35 38 42 45 49 53 57 61 65 67 68 69 69 68 67 67 67 68 69 71 74 80 86 87 85 83 81 79 77 75 73 72 71 70 67 63 60 59 59 59 58 57 59 60 62 63 63 61 59 57 56 57 58 59 59 59 58 54 50 48 49 52 54 55 56 58 60 62 64 65 66 67 67 66 66 66 65 65 65 66 67 67 66 64
32 35 38 42 45 49 53 57 61 65 68 69 69 69 68 67 66 67 68 69 71 73 77 82 85 86 84 82 80 77 75 73 72 70 67 64 62 58 56 56 57 56 56 59 61 63 63 62 58 56 56 58 59 60 61 61 60 60 57 52 49 50 51 52 54 56 58 60 62 63 64 63 64 64 65 66 66 65 65 66 66 66 66 64 63
32 34 38 42 46 50 53 57 61 65 68 69 69 68 67 66 66 67 68 69 70 72 75 78 81 84 85 84 81 78 76 74 72 67 63 61 60 57 55 54 55 55 55 57 61 64 65 62 58 56 57 59 61 62 62 61 61 61 57 51 49 49 50 50 52 55 58 60 62 62 61 61 62 64 65 65 65 65 66 67 67 66 65 64 63
32 34 36 39 44 49 53 56 60 64 66 68 68 68 67 67 67 67 68 69 70 72 74 76 79 83 86 85 82 79 77 74 69 64 62 60 58 57 56 56 56 56 55 55 58 61 62 61 60 60 61 63 64 63 62 62 62 60 55 50 49 49 50 51 52 54 57 59 60 61 62 63 63 64 65 65 66 67 68 68 67 65 64 63 62
35 35 36 37 40 44 49 53 57 61 64 66 66 66 66 66 67 68 69 70 71 72 74 78 81 84 86 86 82 79 76 71 66 63 63 62 59 57 58 58 58 57 55 55 57 57 57 58 59 60 62 64 65 65 64 64 64 60 55 52 51 52 52 53 54 54 56 58 60 62 64 64 64 65 67 68 69 69 68 67 66 65 65 64 62
39 39 39 38 39 40 44 48 53 58 62 64 66 65 65 65 67 69 70 71 72 73 76 80 84 86 86 85 81 78 75 70 65 64 65 65 63 59 56 54 54 55 55 55 55 53 51 51 52 54 56 58 60 62 63 63 62 59 56 54 54 55 55 54 54 55 57 59 60 62 64 65 66 68 70 70 69 68 66 66 67 67 67 65 63
42 42 42 42 43 42 43 45 49 54 59 63 65 66 66 67 68 69 71 72 73 75 79 83 85 86 85 84 81 78 75 71 67 67 67 69 69 65 58 53 53 52 52 53 54 52 49 50 52 54 55 56 56 58 60 59 57 56 55 55 56 56 56 56 58 60 61 60 60 62 65 67 69 70 70 70 69 68 66 67 68 70 69 66 63
43 42 42 43 44 44 44 45 47 51 56 60 64 66 68 69 69 69 71 73 74 76 79 83 86 86 85 84 82 80 76 72 69 69 68 69 71 70 65 60 57 54 52 53 55 53 51 53 57 59 60 59 58 58 58 58 56 55 56 57 58 58 58 59 60 61 59 59 60 63 66 68 70 69 69 69 70 69 69 69 70 71 70 67 63
46 44 42 42 42 43 44 45 46 49 53 58 63 66 69 70 70 70 71 73 74 75 78 82 86 87 86 85 84 82 78 73 70 70 69 69 70 71 68 63 59 57 55 56 58 59 58 60 61 62 63 63 63 62 62 62 61 61 60 60 60 60 60 60 59 58 58 60 63 65 67 69 70 70 70 70 71 71 70 70 70 71 70 67 64
49 47 45 44 44 44 44 45 46 47 50 56 61 66 69 71 71 71 72 73 74 74 76 80 85 87 87 85 84 83 80 76 72 70 69 69 71 73 72 68 63 61 61 63 65 66 67 68 69 68 67 67 67 66 66 66 65 65 65 65 64 64 64 63 62 62 63 65 66 67 68 70 71 72 71 71 71 71 71 71 71 71 69 66 64
53 51 49 49 49 47 46 45 46 46 48 52 58 64 69 72 73 72 73 73 74 74 74 77 82 85 86 84 82 80 80 79 75 71 70 71 72 74 76 75 72 69 69 70 72 73 73 72 72 72 72 71 71 71 71 71 69 69 69 69 68 68 68 68 68 69 70 70 71 71 71 72 73 73 72 72 73 73 72 72 72 70 68 66 66
55 53 52 53 53 51 49 48 47 46 47 49 53 59 66 72 74 74 74 74 74 74 74 76 80 82 83 82 80 78 78 80 79 76 73 73 73 74 76 77 77 76 74 74 75 77 77 76 75 74 73 72 72 72 72 71 71 71 70 69 69 70 72 73 74 74 75 76 75 75 74 75 75 74 74 74 74 74 73 72 71 69 67 68 69
55 54 53 54 54 53 53 52 51 49 48 48 50 54 61 68 73 75 75 76 76 75 74 76 79 81 81 81 79 78 78 81 83 81 78 76 75 74 75 76 77 77 77 76 76 77 78 79 79 78 76 74 72 71 71 72 72 72 71 71 72 74 76 77 77 78 79 80 79 78 78 78 77 76 76 75 74 73 72 71 69 69 69 70 71
Wind_Direction
246 248 248 247 246 246 245 245 245 245 245 245 246 246 247 248 250 251 253 256 257 258 259 260 259 261 263 266 269 273 279 281 279 279 282 284 287 288 288 291 293 296 298 299 300 300 301 303 305 307 308 309 309 308 308 309 310 310 308 308 312 314 316 316 315 315 314 313 313 314 318 322 323 323 323 324 325 327 329 330 333 333 334 336 338
239 245 248 248 248 247 247 246 246 247 247 248 247 247 248 249 250 251 253 254 255 255 258 258 258 260 263 265 268 271 277 280 279 279 282 285 288 289 289 292 294 296 297 298 298 299 300 303 305 307 307 308 308 307 308 309 310 309 307 308 311 313 314 315 314 314 313 311 311 313 317 320 321 321 322 322 324 326 327 328 329 331 332 334 336
230 237 243 247 248 247 246 247 247 248 248 249 249 249 249 249 250 251 252 252 252 253 256 257 257 260 263 265 267 270 274 277 277 279 283 286 288 289 290 291 293 294 295 296 297 297 299 303 305 306 307 308 308 307 307 308 309 307 305 307 310 311 313 313 313 313 311 310 311 312 315 316 318 318 318 319 321 323 324 325 325 328 330 332 334
226 227 232 239 243 245 246 247 247 248 248 248 249 249 249 248 249 250 251 251 251 252 254 256 256 259 263 265 266 268 271 274 275 278 284 286 288 289 289 291 292 292 294 296 295 296 299 303 305 306 307 307 307 307 307 307 307 304 303 305 307 310 311 313 314 315 313 312 311 311 312 313 314 315 315 315 317 320 322 322 324 327 329 331 333
226 225 226 230 234 238 243 247 248 247 247 247 246 247 248 248 248 248 249 250 250 250 252 254 255 258 261 263 264 266 268 271 273 278 284 287 288 288 288 289 290 291 294 295 294 295 299 302 305 307 308 307 307 307 306 306 304 301 300 302 305 308 311 312 315 318 318 316 314 311 310 311 312 313 313 313 315 318 320 322 324 327 329 331 331
228 227 226 228 231 232 235 242 247 247 246 246 244 243 244 245 246 247 247 248 249 250 252 253 255 257 259 260 262 264 267 269 271 277 284 286 286 286 286 286 288 290 293 295 294 295 298 302 305 308 308 307 308 308 306 304 302 298 298 300 303 307 310 312 316 319 320 320 317 313 310 310 312 312 312 312 314 318 320 323 326 328 329 330 331
228 227 226 226 228 230 229 233 243 248 247 246 245 243 242 242 243 245 246 247 248 250 252 253 255 257 258 259 261 264 266 269 271 277 283 284 283 283 283 284 287 290 292 294 294 294 296 301 306 308 308 307 308 308 305 302 300 296 296 299 302 307 310 312 315 319 321 320 318 315 312 311 312 312 313 314 316 320 323 325 328 329 330 331 331
225 226 225 223 223 227 228 230 239 247 249 247 246 244 243 242 242 242 244 246 248 250 251 253 255 256 257 259 261 263 266 269 271 276 280 280 280 280 281 282 286 288 290 293 293 293 296 302 306 308 308 306 307 307 304 301 297 294 295 298 301 306 310 312 314 317 318 318 316 314 312 311 312 313 315 317 320 323 326 328 329 330 330 331 331
223 223 223 222 221 224 228 231 238 246 248 248 247 246 244 243 242 242 243 245 247 248 250 251 253 255 256 258 260 263 266 268 270 274 276 276 277 278 278 281 284 285 288 291 293 293 295 301 307 308 307 305 306 306 303 299 296 293 293 297 301 305 309 311 313 315 315 316 314 313 311 310 312 315 318 320 323 325 327 328 330 331 331 331 331
224 223 223 224 224 223 223 228 237 244 248 249 248 247 245 244 243 242 242 244 246 247 249 251 253 254 256 258 260 263 266 268 271 272 272 272 274 274 275 278 281 282 285 289 292 293 294 300 307 307 305 305 305 305 302 297 294 291 292 296 301 304 307 310 312 314 315 315 314 312 311 310 313 317 321 323 325 325 326 329 331 332 332 331 331
224 224 224 226 227 223 221 224 231 238 243 246 246 244 244 243 244 243 242 242 244 246 248 250 252 254 256 258 260 263 264 267 269 268 268 270 271 270 273 275 277 279 282 286 291 291 293 299 306 306 304 304 305 304 301 296 292 289 290 295 299 302 305 309 312 314 316 317 316 314 311 311 314 318 321 323 324 325 326 330 331 331 331 330 331
223 223 223 225 226 224 221 220 222 229 237 242 243 242 242 242 243 243 241 241 242 244 246 249 250 253 255 257 259 261 262 264 265 265 265 267 267 268 270 272 274 277 280 284 288 289 291 297 305 305 303 304 306 304 300 295 291 288 288 292 296 300 303 308 311 314 316 317 318 317 315 314 315 318 321 323 324 325 328 330 331 330 330 330 331
222 223 222 223 223 222 221 220 222 227 234 239 240 240 238 239 241 242 240 240 241 243 245 247 249 250 253 255 256 258 260 262 261 261 262 264 265 267 268 269 272 276 278 281 285 287 290 295 302 304 303 304 306 304 300 296 291 288 287 289 293 297 302 307 310 311 312 315 317 317 316 316 317 319 321 322 324 326 328 329 329 329 329 330 332
222 223 222 222 222 221 220 222 225 230 234 236 237 236 235 235 237 239 239 238 240 243 246 247 247 249 251 253 254 255 257 257 257 258 261 264 265 267 267 268 272 275 277 280 283 286 288 292 298 302 302 303 305 304 300 296 292 289 287 288 291 295 300 304 307 307 308 312 316 317 316 315 316 318 320 321 323 326 328 329 328 328 329 331 333
222 223 223 222 222 221 221 222 225 230 234 235 233 231 231 231 233 236 238 237 238 242 245 247 248 248 250 252 252 251 251 255 260 262 261 263 266 266 266 268 271 274 276 279 281 284 287 291 296 299 300 301 303 302 300 296 291 289 288 288 289 293 297 302 304 304 306 310 314 316 315 314 315 316 318 320 322 325 328 328 328 329 330 332 333
222 223 224 223 222 222 221 222 223 226 230 232 229 226 227 228 230 233 237 239 240 242 246 251 252 250 250 252 251 248 248 255 263 263 260 262 265 266 266 268 271 273 276 278 280 282 285 289 294 297 297 298 299 300 299 296 292 288 288 288 288 291 295 299 301 303 306 310 313 315 314 314 314 314 316 317 320 324 328 329 329 330 332 333 333
222 222 223 224 223 223 222 222 222 223 225 227 227 225 226 227 226 228 234 240 243 246 250 254 253 250 250 251 249 246 247 255 263 263 260 262 264 265 265 267 270 272 274 277 279 279 281 286 291 293 293 293 294 295 297 297 293 288 286 287 288 290 294 297 299 302 306 309 312 314 314 314 314 313 314 316 319 322 326 328 329 330 332 332 332
222 221 222 223 224 223 223 222 223 223 224 225 226 226 226 226 224 225 229 231 234 240 248 253 254 252 251 250 249 247 248 254 260 260 260 262 262 261 262 264 266 269 271 274 276 277 278 282 287 289 290 289 289 291 293 295 293 288 285 285 287 289 292 294 297 301 305 308 311 313 314 314 314 314 314 316 318 320 323 327 328 329 331 332 331
224 222 221 222 223 224 224 224 223 224 224 224 224 224 225 225 225 226 226 224 222 225 232 242 250 254 253 252 252 250 249 254 258 257 257 259 259 258 260 263 265 267 270 272 274 275 277 280 284 288 288 286 286 287 289 291 292 288 284 284 286 289 291 292 295 299 303 307 309 311 312 314 314 314 314 316 318 320 322 325 326 328 330 331 330
225 223 221 221 222 224 225 225 225 225 224 223 222 222 223 225 228 228 226 223 220 218 219 225 234 242 248 253 254 252 250 254 255 253 253 256 258 260 262 264 266 267 269 271 273 274 276 277 280 285 288 286 285 285 286 288 289 288 285 285 287 289 289 289 292 297 301 305 307 308 309 312 313 313 314 316 318 319 321 324 325 327 329 330 329
224 223 222 221 221 223 225 226 226 226 226 225 224 224 225 228 230 229 226 223 221 218 217 218 221 225 232 243 250 252 252 252 250 247 249 253 257 261 264 266 267 267 269 272 274 274 274 275 278 283 287 287 284 284 284 285 286 286 286 288 288 287 287 289 292 296 299 302 305 307 307 310 311 311 313 316 318 319 320 322 323 325 328 330 329
223 223 223 222 222 223 224 226 227 227 228 228 228 228 228 230 230 228 225 224 222 219 217 218 218 218 222 228 238 246 251 252 249 245 246 250 253 258 262 264 266 268 270 273 275 275 274 275 278 283 287 288 286 283 283 282 283 285 287 289 289 288 290 291 293 296 298 300 303 305 306 309 311 309 309 314 318 319 319 320 321 324 327 329 328
224 224 223 223 223 223 223 224 226 227 228 230 230 229 228 228 227 224 223 223 221 219 217 217 217 219 221 221 226 236 245 250 250 247 246 248 250 253 257 260 263 267 270 272 274 276 277 277 279 283 289 291 287 283 282 281 282 284 286 288 290 290 291 292 293 295 297 298 301 304 306 309 310 309 309 313 317 318 318 318 320 323 327 328 327
224 223 223 222 222 223 223 223 224 225 226 228 230 229 227 225 224 222 220 220 220 218 217 217 218 220 220 218 218 228 238 245 248 248 247 247 248 248 251 255 260 265 270 272 274 277 278 279 280 285 291 294 289 283 282 281 281 283 286 288 291 291 291 292 293 295 297 298 301 304 306 307 309 310 311 313 315 316 316 317 319 322 326 326 326
224 223 222 221 221 221 222 222 222 223 224 226 228 228 227 224 223 221 220 219 219 218 217 218 219 219 218 215 214 219 228 236 244 247 247 246 247 247 249 252 256 262 267 271 274 277 279 280 282 289 296 298 292 284 281 281 280 282 284 287 290 292 292 292 293 294 297 298 300 304 306 307 310 311 311 312 313 314 315 316 318 322 325 325 324
223 223 222 222 221 220 220 221 222 222 223 224 225 226 226 224 222 221 220 219 220 219 218 218 218 217 216 216 215 216 220 228 237 243 245 246 246 247 250 251 253 258 264 269 272 276 279 280 285 293 300 300 293 284 280 280 280 281 284 287 290 291 292 293 293 294 296 298 299 302 305 308 311 311 309 309 311 312 314 315 318 322 324 323 322
224 223 223 222 222 221 219 219 220 221 222 222 222 224 224 223 222 221 220 220 221 219 218 217 217 216 216 216 217 218 220 225 231 237 241 245 246 248 249 250 250 255 260 264 268 271 274 278 287 297 300 297 290 281 275 275 276 280 284 286 289 291 291 292 293 292 294 297 298 299 302 306 309 308 306 306 309 311 312 314 317 320 322 321 321
223 223 222 222 222 222 219 218 217 219 220 220 220 221 222 222 221 220 219 219 220 218 217 216 215 215 216 216 218 221 223 227 231 235 239 243 246 248 249 248 249 254 258 258 259 264 268 275 288 296 295 290 285 278 273 272 274 278 282 285 288 289 290 291 292 291 293 296 295 294 298 303 305 304 304 306 309 310 311 313 316 319 321 321 321
221 221 220 220 220 220 219 217 216 216 218 218 218 218 218 219 219 219 217 217 217 215 215 215 215 216 217 218 220 222 224 228 232 235 237 241 245 248 251 251 248 251 257 256 254 258 265 273 285 292 289 282 280 278 277 277 277 278 281 284 286 288 290 291 290 289 291 292 290 291 295 299 301 302 303 307 309 309 311 313 315 318 320 320 320
218 219 219 219 220 219 217 216 215 215 216 217 217 217 217 217 217 217 216 216 215 213 213 214 216 218 219 220 221 222 222 225 230 234 237 241 243 246 252 254 249 248 254 256 254 256 264 272 281 287 282 276 277 279 279 280 279 279 281 283 284 287 290 289 286 286 288 288 288 291 295 297 299 300 302 306 308 308 310 312 313 316 319 319 319
217 215 214 217 219 219 216 215 214 214 215 216 216 216 216 216 216 217 217 216 215 214 213 214 216 217 219 220 221 221 221 224 229 233 235 239 242 243 248 253 250 246 250 253 253 258 264 269 276 282 278 273 277 280 281 283 283 281 279 280 282 285 286 282 280 284 288 290 291 294 294 294 296 299 301 305 307 308 309 311 312 315 318 318 318
219 216 213 213 215 216 215 214 213 213 214 215 215 216 216 215 215 217 218 217 216 214 213 213 215 217 218 219 220 221 221 223 228 231 233 237 239 240 244 249 247 244 247 250 252 258 265 267 270 274 274 274 278 281 284 288 287 282 278 278 279 281 281 280 281 285 290 294 296 296 294 294 297 299 301 304 305 306 309 310 311 314 317 317 317
221 220 218 217 215 213 213 213 212 212 213 213 214 215 215 214 215 216 218 217 216 214 213 214 216 218 219 219 220 222 222 223 226 229 232 235 236 237 241 244 242 241 244 247 249 256 263 264 264 267 270 273 277 283 289 292 289 281 277 276 277 279 281 282 283 287 291 294 295 295 296 297 298 299 300 303 303 304 307 309 311 313 315 315 316
222 222 220 219 217 214 213 212 212 211 212 213 214 214 215 215 216 217 217 217 215 214 214 214 217 219 219 220 222 223 223 223 225 227 230 233 234 236 239 240 239 241 244 246 248 255 262 263 261 262 266 271 279 287 293 293 289 281 276 275 276 279 281 282 284 288 291 292 293 295 296 296 296 296 297 300 301 303 306 308 310 311 312 313 314
222 222 221 218 216 214 214 213 212 211 211 212 213 214 215 216 216 217 218 216 215 214 214 215 217 219 219 219 221 223 223 223 223 225 228 232 234 236 238 241 244 246 246 246 247 253 259 259 256 256 262 272 283 291 292 292 288 282 277 275 276 277 280 282 283 286 288 289 289 290 291 290 290 291 293 296 299 302 304 306 307 309 310 311 313
220 220 220 219 216 214 214 213 212 212 212 212 213 215 216 216 216 217 217 216 215 215 214 215 218 219 218 218 220 221 223 223 224 225 228 231 234 236 238 243 248 248 245 243 245 251 257 256 252 254 263 276 287 290 289 289 288 284 279 276 277 278 279 279 279 279 280 280 279 278 279 281 284 287 291 294 298 301 302 304 305 307 308 310 313
217 217 217 217 216 215 214 213 212 212 212 213 214 215 216 216 216 215 216 216 216 215 215 216 218 219 218 216 218 220 222 223 224 225 228 231 234 236 239 244 247 246 243 241 244 249 253 253 254 261 270 278 284 286 286 286 287 286 281 276 273 272 271 272 273 273 273 272 271 272 275 278 281 285 290 293 296 299 301 302 304 305 307 309 313
216 215 214 213 214 213 212 212 212 213 213 213 215 216 217 217 216 214 215 216 215 215 215 216 218 219 218 216 217 220 221 221 224 226 229 232 234 236 240 245 246 244 242 242 245 248 250 253 259 267 272 275 278 281 282 282 285 286 281 273 268 266 266 268 271 272 272 272 273 276 279 280 282 286 290 292 295 297 299 301 303 304 306 309 313
217 215 214 213 213 212 211 210 211 212 213 214 215 216 217 217 216 214 215 215 214 215 216 216 217 219 218 216 217 219 220 221 224 226 229 232 234 236 240 244 245 244 243 245 247 249 253 257 262 267 270 272 275 277 277 278 281 283 280 274 270 268 268 270 272 273 274 275 277 278 280 282 284 287 289 291 293 296 299 301 302 303 306 309 312
219 217 215 214 214 214 212 211 210 211 212 214 215 216 217 217 216 215 215 215 214 215 216 216 217 218 218 218 218 218 219 221 224 225 228 232 233 234 239 243 245 244 244 245 248 252 256 259 261 265 268 270 271 273 274 274 277 280 279 275 271 270 270 271 272 274 274 275 276 278 280 282 285 286 288 291 294 297 299 300 301 303 307 309 311
223 220 218 217 216 216 215 213 212 212 212 213 214 216 217 217 217 216 215 215 214 214 215 216 217 218 218 218 218 218 219 221 223 224 228 230 231 233 239 243 245 246 246 247 249 252 254 255 257 261 263 264 267 270 271 271 274 276 275 273 272 271 270 271 273 274 274 275 277 280 283 285 286 287 290 293 295 296 298 299 301 304 307 308 309
230 227 224 222 221 220 219 217 215 214 214 214 214 215 216 217 217 216 215 215 215 215 215 217 217 216 216 217 217 217 219 221 222 225 229 230 230 234 238 239 240 242 244 246 248 250 252 254 256 257 258 261 265 267 267 269 272 272 270 270 271 270 270 273 275 275 275 278 281 284 286 288 289 290 291 293 294 297 299 300 300 303 305 307 308
234 234 233 230 227 225 224 222 219 217 216 216 216 215 216 217 217 217 215 215 215 216 217 216 216 215 216 216 217 218 220 221 224 229 232 230 231 236 239 237 236 236 237 239 244 248 251 255 258 258 258 260 262 264 265 267 269 268 266 268 270 270 272 275 275 274 277 280 283 286 288 290 289 290 291 294 296 298 299 299 299 301 304 306 307
236 237 238 238 235 232 229 227 224 221 218 217 217 217 216 216 217 216 216 215 216 218 218 216 214 214 215 216 216 218 220 222 224 228 229 228 228 234 237 236 234 233 233 235 240 245 248 249 251 253 255 256 258 261 263 264 265 264 264 267 269 271 274 275 275 276 280 283 286 288 290 290 290 291 293 296 298 298 298 297 298 300 302 305 307
238 238 239 240 240 238 235 231 228 225 221 219 218 218 217 216 216 217 217 216 217 218 218 215 213 214 215 216 217 219 220 221 223 225 226 225 226 229 232 232 231 232 233 236 240 243 242 240 240 244 248 251 255 258 259 260 261 262 264 268 271 274 276 278 279 281 284 286 288 290 291 291 292 293 295 296 297 297 296 296 296 299 302 305 306
240 239 239 239 240 240 238 236 232 229 225 222 220 218 218 217 217 217 218 217 218 220 218 215 213 214 216 217 219 220 222 222 222 224 225 225 226 228 231 232 232 233 235 236 236 236 234 234 236 240 244 248 252 254 255 256 259 261 265 270 273 276 278 280 282 283 285 287 289 291 291 291 291 292 293 295 295 295 295 295 296 298 301 304 305
241 241 241 240 240 240 239 237 235 232 229 226 222 220 218 218 218 218 219 219 220 221 219 216 214 215 217 218 220 222 224 223 223 224 227 227 227 228 230 230 232 233 234 234 232 231 231 234 239 242 245 247 250 252 254 256 259 262 266 271 274 277 279 280 280 280 283 287 290 291 290 289 290 291 293 294 294 294 294 294 294 297 300 303 303
242 243 244 243 243 242 241 239 236 234 232 230 226 222 220 219 219 219 220 220 221 222 220 217 215 216 218 220 222 224 224 223 222 225 228 229 229 229 229 229 229 230 230 231 233 235 237 240 243 245 246 248 250 252 255 258 261 264 267 270 273 274 276 277 276 277 282 287 291 291 290 289 291 293 294 293 293 292 292 292 294 296 299 301 301
242 243 243 244 245 246 245 244 240 236 234 233 230 225 222 221 220 219 219 220 221 222 221 219 217 217 219 221 223 225 224 222 222 225 228 229 228 229 229 230 230 231 231 233 236 239 242 245 246 248 249 251 252 254 257 260 263 265 267 269 271 272 274 275 275 277 281 287 290 290 290 290 292 293 293 292 291 291 291 291 293 296 298 298 297
243 243 243 243 245 246 247 247 245 240 236 235 233 230 225 223 222 221 220 220 221 222 222 221 220 219 220 222 224 225 225 223 223 225 227 228 228 229 230 231 232 232 233 235 238 240 243 246 249 251 253 254 255 257 259 261 264 266 268 268 269 271 273 275 276 278 282 286 289 290 290 291 292 292 291 291 290 290 290 291 293 295 295 294 294
243 244 243 243 244 246 247 247 247 245 240 237 235 233 229 226 224 224 223 222 222 222 223 223 223 222 221 222 224 226 226 225 225 226 228 228 228 228 230 231 233 234 235 237 240 242 244 247 250 252 254 256 257 258 260 261 263 265 265 265 267 270 273 275 276 277 281 285 288 289 290 291 291 291 291 290 289 289 289 290 291 291 291 291 292
Height
10660 10660 10661 10664 10667 10670 10675 10679 10682 10684 10686 10689 10693 10697 10699 10701 10703 10704 10705 10708 10711 10714 10716 10717 10717 10718 10720 10721 10722 10722 10722 10722 10722 10722 10721 10721 10721 10720 10721 10721 10720 10720 10718 10716 10714 10713 10711 10710 10709 10707 10706 10705 10703 10701 10700 10699 10698 10697 10695 10693 10692 10690 10687 10685 10682 10678 10675 10673 10671 10668 10666 10662 10658 10655 10652 10649 10646 10642 10638 10634 10631 10627 10623 10619 10614
10651 10654 10654 10656 10660 10664 10668 10672 10675 10677 10681 10684 10688 10692 10694 10696 10697 10698 10701 10703 10706 10708 10710 10711 10712 10713 10715 10716 10717 10717 10717 10717 10718 10717 10716 10716 10715 10715 10715 10716 10715 10715 10714 10712 10710 10708 10707 10706 10705 10703 10701 10701 10700 10698 10696 10695 10695 10693 10692 10690 10689 10687 10685 10682 10680 10677 10674 10671 10669 10666 10663 10659 10656 10652 10649 10646 10643 10639 10635 10631 10627 10623 10619 10615 10611
10635 10642 10648 10650 10653 10656 10660 10664 10668 10671 10675 10679 10684 10687 10689 10690 10691 10692 10695 10697 10700 10702 10703 10704 10706 10709 10710 10712 10712 10712 10712 10713 10713 10713 10712 10711 10711 10711 10711 10710 10710 10710 10709 10708 10706 10704 10703 10702 10701 10699 10697 10696 10695 10694 10692 10692 10691 10690 10689 10687 10686 10684 10682 10680 10678 10675 10673 10669 10666 10663 10660 10657 10653 10650 10646 10643 10640 10636 10633 10628 10624 10620 10615 10610 10606
10622 10628 10636 10641 10644 10647 10652 10658 10661 10665 10670 10674 10678 10680 10682 10683 10685 10687 10689 10691 10694 10696 10697 10698 10701 10704 10706 10707 10707 10707 10707 10708 10709 10708 10708 10707 10706 10706 10706 10705 10705 10705 10705 10704 10702 10700 10698 10697 10696 10695 10693 10692 10691 10690 10689 10688 10688 10687 10685 10684 10683 10681 10679 10677 10675 10673 10670 10667 10664 10661 10657 10654 10651 10647 10644 10641 10637 10634 10630 10626 10621 10616 10611 10605 10601
10614 10619 10625 10630 10633 10638 10645 10650 10653 10657 10662 10667 10671 10673 10674 10676 10678 10681 10683 10685 10688 10690 10691 10693 10696 10699 10701 10701 10701 10701 10702 10704 10704 10704 10703 10703 10702 10702 10701 10700 10700 10700 10700 10700 10698 10695 10694 10693 10692 10691 10689 10688 10687 10687 10685 10685 10684 10683 10682 10681 10680 10678 10676 10674 10672 10670 10667 10664 10661 10658 10655 10652 10649 10645 10642 10638 10635 10632 10627 10623 10618 10613 10608 10602 10597
10605 10613 10619 10624 10628 10632 10637 10642 10645 10648 10652 10656 10660 10663 10665 10668 10670 10673 10676 10678 10680 10682 10685 10688 10691 10693 10695 10695 10696 10697 10698 10699 10699 10699 10699 10699 10698 10698 10697 10696 10695 10695 10696 10695 10694 10691 10690 10689 10688 10687 10685 10684 10683 10683 10682 10681 10680 10680 10679 10678 10676 10675 10672 10670 10668 10666 10663 10660 10658 10655 10652 10650 10647 10643 10639 10636 10632 10629 10625 10620 10616 10610 10605 10599 10593
10596 10604 10611 10616 10620 10624 10627 10632 10637 10639 10641 10645 10649 10652 10656 10659 10663 10666 10668 10671 10673 10676 10679 10683 10686 10687 10688 10689 10691 10692 10694 10695 10695 10694 10694 10694 10694 10693 10692 10691 10691 10690 10691 10691 10690 10687 10685 10685 10683 10682 10681 10679 10679 10678 10678 10677 10676 10676 10675 10674 10672 10671 10668 10666 10664 10662 10659 10656 10654 10651 10649 10648 10645 10641 10637 10633 10629 10625 10621 10617 10613 10609 10603 10598 10591
10589 10596 10599 10602 10608 10614 10617 10622 10627 10630 10632 10634 10638 10643 10648 10652 10656 10659 10661 10664 10667 10670 10673 10677 10679 10680 10682 10684 10686 10687 10690 10691 10690 10690 10689 10689 10689 10689 10688 10687 10686 10686 10686 10686 10685 10683 10681 10680 10679 10678 10676 10675 10674 10674 10673 10672 10672 10671 10671 10670 10668 10667 10665 10662 10660 10658 10656 10653 10650 10648 10646 10644 10642 10639 10635 10630 10626 10622 10618 10614 10611 10607 10602 10597 10590
10578 10584 10588 10593 10599 10603 10607 10614 10620 10623 10624 10626 10630 10635 10640 10644 10648 10652 10655 10658 10661 10664 10667 10670 10672 10674 10676 10679 10681 10683 10685 10686 10685 10685 10685 10684 10684 10684 10684 10683 10682 10682 10681 10681 10681 10679 10677 10676 10675 10674 10672 10671 10670 10670 10669 10668 10668 10667 10666 10665 10664 10663 10661 10659 10657 10655 10652 10650 10647 10644 10642 10640 10638 10636 10632 10628 10624 10619 10616 10612 10608 10604 10599 10594 10588
10566 10573 10579 10585 10589 10591 10594 10601 10611 10618 10618 10617 10622 10628 10632 10635 10639 10644 10649 10653 10655 10658 10661 10664 10666 10669 10671 10674 10675 10678 10680 10681 10680 10679 10680 10680 10680 10680 10679 10678 10678 10677 10677 10677 10676 10674 10672 10672 10671 10670 10668 10667 10666 10666 10665 10664 10663 10663 10662 10661 10660 10659 10658 10656 10654 10651 10649 10646 10642 10639 10637 10635 10633 10632 10629 10625 10621 10617 10613 10609 10604 10600 10596 10591 10585
10553 10560 10567 10573 10578 10584 10587 10590 10599 10609 10609 10608 10613 10619 10623 10626 10631 10637 10643 10647 10650 10653 10655 10658 10661 10663 10665 10668 10671 10673 10676 10676 10674 10674 10675 10675 10675 10675 10675 10674 10673 10673 10673 10673 10672 10670 10668 10667 10667 10666 10664 10663 10662 10662 10661 10661 10660 10659 10658 10657 10657 10656 10654 10653 10650 10648 10645 10641 10638 10635 10633 10631 10629 10627 10624 10621 10618 10614 10610 10606 10601 10597 10593 10588 10583
10540 10546 10553 10558 10564 10573 10579 10580 10584 10591 10596 10598 10603 10609 10614 10619 10625 10631 10636 10641 10644 10647 10650 10653 10656 10658 10660 10663 10666 10669 10671 10670 10669 10670 10671 10671 10670 10670 10670 10669 10669 10669 10668 10668 10667 10666 10664 10663 10663 10662 10660 10659 10658 10658 10657 10657 10656 10655 10655 10654 10653 10652 10651 10649 10647 10644 10641 10638 10635 10632 10630 10627 10625 10623 10620 10617 10613 10610 10606 10602 10598 10594 10590 10585 10580
10528 10533 10539 10544 10550 10559 10567 10570 10573 10577 10583 10589 10593 10599 10605 10612 10618 10625 10630 10634 10637 10640 10644 10648 10651 10654 10656 10659 10662 10664 10666 10665 10665 10666 10666 10665 10665 10665 10665 10665 10664 10664 10664 10664 10663 10661 10660 10659 10659 10658 10656 10655 10654 10653 10653 10653 10652 10652 10651 10651 10650 10649 10647 10645 10643 10640 10637 10635 10632 10630 10627 10624 10622 10619 10616 10614 10610 10606 10602 10598 10595 10591 10586 10581 10576
10516 10522 10527 10532 10539 10546 10553 10559 10564 10570 10575 10580 10584 10590 10597 10604 10611 10618 10622 10627 10631 10635 10638 10642 10646 10649 10651 10654 10657 10660 10661 10660 10660 10661 10661 10660 10660 10661 10661 10660 10660 10659 10659 10659 10658 10657 10656 10655 10655 10654 10652 10651 10649 10649 10648 10648 10647 10647 10646 10646 10645 10644 10643 10642 10639 10636 10634 10632 10629 10627 10624 10621 10619 10616 10613 10610 10607 10603 10599 10595 10591 10587 10582 10577 10571
10504 10510 10516 10523 10529 10536 10542 10549 10556 10563 10569 10573 10576 10581 10589 10596 10604 10611 10616 10621 10626 10630 10633 10636 10639 10643 10646 10649 10652 10655 10656 10655 10655 10656 10656 10655 10655 10656 10656 10656 10655 10655 10654 10654 10654 10653 10651 10651 10650 10649 10648 10647 10645 10644 10644 10643 10643 10642 10642 10641 10641 10640 10639 10638 10635 10633 10630 10628 10626 10624 10621 10618 10616 10613 10610 10607 10604 10600 10596 10592 10587 10582 10578 10572 10567
10492 10499 10506 10514 10520 10526 10532 10539 10547 10554 10561 10565 10569 10574 10581 10589 10597 10605 10612 10617 10621 10625 10628 10631 10634 10637 10640 10643 10646 10650 10651 10649 10649 10650 10650 10649 10650 10651 10651 10651 10650 10650 10649 10649 10649 10648 10646 10646 10645 10645 10644 10642 10641 10640 10639 10639 10638 10637 10637 10636 10635 10635 10635 10634 10632 10629 10626 10625 10622 10620 10618 10615 10612 10610 10607 10604 10600 10597 10592 10588 10583 10578 10573 10568 10563
10478 10486 10493 10501 10509 10515 10521 10527 10534 10541 10548 10555 10561 10567 10572 10580 10589 10597 10604 10611 10617 10622 10625 10627 10629 10632 10634 10637 10640 10644 10644 10644 10643 10644 10644 10644 10645 10646 10646 10645 10644 10644 10643 10643 10643 10643 10641 10640 10640 10640 10639 10638 10637 10636 10634 10634 10633 10633 10632 10631 10630 10630 10630 10629 10627 10624 10622 10621 10618 10616 10614 10611 10608 10606 10603 10600 10596 10592 10588 10584 10579 10575 10570 10565 10560
10464 10473 10480 10487 10495 10502 10507 10512 10519 10527 10536 10545 10553 10559 10565 10573 10581 10587 10592 10599 10607 10615 10622 10625 10626 10627 10629 10631 10634 10637 10638 10637 10637 10638 10638 10639 10640 10639 10639 10639 10638 10638 10637 10637 10637 10637 10636 10634 10634 10634 10634 10633 10632 10631 10630 10629 10629 10628 10627 10626 10626 10626 10626 10625 10623 10620 10618 10616 10614 10612 10609 10607 10604 10602 10599 10596 10592 10589 10585 10580 10576 10572 10568 10563 10558
10450 10459 10467 10474 10480 10487 10493 10499 10507 10516 10527 10537 10545 10552 10559 10566 10573 10578 10584 10589 10595 10602 10611 10617 10621 10623 10625 10626 10628 10631 10632 10631 10631 10632 10633 10633 10633 10632 10632 10632 10632 10632 10631 10630 10630 10630 10630 10629 10627 10628 10628 10628 10627 10626 10625 10624 10624 10623 10622 10621 10621 10621 10621 10620 10618 10616 10614 10612 10610 10608 10606 10603 10600 10598 10595 10592 10589 10585 10581 10577 10573 10569 10565 10560 10555
10434 10443 10453 10461 10467 10473 10481 10489 10498 10508 10519 10529 10537 10544 10551 10558 10565 10571 10578 10584 10587 10590 10596 10602 10608 10614 10619 10622 10624 10625 10626 10626 10625 10625 10625 10625 10625 10625 10625 10626 10626 10625 10624 10624 10624 10624 10624 10623 10621 10621 10622 10623 10622 10621 10620 10619 10618 10617 10616 10617 10617 10617 10616 10614 10613 10612 10609 10608 10606 10604 10602 10599 10596 10594 10592 10589 10585 10582 10578 10574 10570 10566 10562 10557 10552
10418 10428 10438 10448 10456 10463 10471 10482 10492 10502 10512 10521 10530 10537 10544 10550 10557 10564 10570 10576 10581 10584 10587 10590 10594 10600 10607 10614 10618 10620 10620 10619 10618 10617 10617 10617 10618 10618 10619 10620 10619 10618 10618 10618 10618 10618 10618 10617 10615 10614 10616 10617 10617 10616 10616 10614 10613 10612 10611 10612 10613 10612 10611 10610 10609 10607 10605 10603 10602 10600 10598 10595 10592 10590 10588 10585 10581 10578 10575 10570 10566 10563 10559 10555 10549
10408 10418 10429 10439 10448 10456 10465 10474 10485 10495 10504 10512 10521 10529 10534 10540 10547 10554 10561 10567 10573 10578 10580 10583 10586 10589 10594 10601 10608 10613 10614 10612 10611 10610 10609 10609 10609 10610 10612 10613 10612 10612 10613 10613 10612 10612 10612 10611 10610 10609 10610 10611 10611 10611 10610 10609 10608 10606 10606 10607 10607 10606 10606 10604 10603 10602 10601 10599 10597 10596 10593 10591 10588 10586 10583 10580 10577 10574 10571 10567 10563 10559 10556 10552 10546
10403 10412 10422 10431 10440 10448 10456 10465 10475 10485 10493 10500 10506 10514 10521 10528 10535 10543 10549 10556 10562 10567 10571 10574 10577 10581 10584 10590 10597 10602 10604 10605 10604 10602 10601 10601 10601 10602 10604 10605 10605 10606 10608 10607 10606 10606 10606 10606 10605 10604 10604 10605 10606 10605 10604 10603 10602 10601 10601 10602 10602 10601 10600 10599 10598 10597 10596 10594 10593 10591 10589 10586 10584 10581 10579 10575 10572 10569 10566 10563 10559 10556 10552 10548 10543
10393 10401 10410 10418 10427 10436 10445 10454 10464 10473 10481 10487 10493 10501 10510 10517 10525 10532 10538 10543 10550 10556 10561 10565 10568 10572 10575 10579 10584 10588 10592 10595 10595 10593 10593 10593 10593 10595 10596 10597 10599 10601 10603 10601 10600 10601 10601 10601 10601 10599 10599 10600 10600 10599 10598 10597 10596 10595 10596 10597 10597 10596 10596 10594 10593 10591 10590 10588 10587 10586 10584 10582 10580 10577 10574 10571 10568 10565 10562 10559 10555 10552 10548 10544 10540
10381 10389 10397 10407 10416 10424 10433 10443 10453 10462 10470 10477 10484 10493 10502 10510 10518 10524 10529 10534 10540 10547 10552 10556 10561 10564 10566 10568 10570 10572 10578 10583 10584 10583 10584 10585 10586 10588 10589 10590 10594 10597 10597 10595 10595 10596 10596 10596 10596 10595 10595 10595 10595 10593 10592 10590 10589 10589 10590 10591 10592 10591 10591 10589 10587 10586 10584 10583 10581 10580 10579 10576 10575 10573 10570 10567 10564 10561 10558 10554 10551 10548 10543 10540 10536
10375 10382 10390 10399 10407 10415 10424 10434 10444 10453 10461 10470 10478 10486 10493 10501 10509 10515 10521 10527 10532 10538 10542 10547 10553 10556 10559 10561 10561 10560 10564 10568 10569 10571 10573 10576 10579 10581 10582 10584 10589 10592 10592 10591 10590 10590 10591 10591 10591 10591 10591 10590 10590 10589 10586 10583 10582 10582 10584 10586 10586 10586 10585 10584 10581 10580 10579 10578 10576 10575 10573 10571 10570 10568 10565 10562 10560 10557 10554 10550 10547 10543 10540 10536 10532
10373 10379 10385 10392 10399 10407 10415 10424 10433 10442 10452 10462 10470 10477 10483 10490 10498 10506 10513 10519 10523 10528 10533 10539 10544 10549 10552 10554 10555 10555 10556 10556 10556 10560 10564 10567 10571 10573 10574 10579 10585 10587 10589 10588 10585 10584 10585 10586 10587 10587 10586 10586 10585 10584 10582 10579 10576 10576 10578 10580 10581 10581 10580 10578 10576 10575 10574 10574 10571 10569 10568 10566 10565 10563 10560 10558 10555 10552 10549 10546 10543 10539 10536 10532 10527
10368 10373 10378 10383 10390 10396 10404 10412 10421 10431 10441 10450 10458 10466 10473 10480 10489 10497 10504 10509 10513 10518 10523 10528 10535 10540 10543 10546 10548 10550 10552 10552 10553 10555 10557 10560 10564 10566 10568 10575 10581 10583 10584 10583 10580 10578 10580 10582 10583 10583 10582 10581 10580 10578 10576 10574 10573 10573 10573 10574 10575 10576 10574 10572 10571 10570 10569 10568 10567 10565 10563 10562 10560 10558 10556 10553 10551 10548 10544 10542 10539 10535 10531 10527 10523
10361 10365 10370 10375 10379 10385 10393 10402 10412 10421 10430 10438 10446 10454 10461 10469 10477 10486 10492 10497 10502 10506 10511 10517 10524 10528 10532 10538 10542 10545 10548 10550 10549 10548 10549 10553 10558 10561 10564 10570 10575 10577 10576 10575 10573 10574 10577 10579 10580 10579 10577 10576 10574 10571 10570 10569 10568 10569 10569 10569 10569 10569 10568 10566 10566 10566 10565 10563 10562 10560 10559 10557 10556 10553 10551 10548 10546 10543 10540 10537 10534 10531 10527 10524 10520
10353 10358 10364 10369 10373 10377 10384 10393 10402 10412 10421 10430 10437 10444 10451 10458 10466 10474 10480 10485 10490 10496 10502 10508 10514 10518 10524 10531 10536 10538 10541 10542 10540 10539 10544 10550 10554 10556 10558 10562 10566 10569 10569 10567 10568 10571 10574 10575 10575 10574 10571 10570 10568 10566 10564 10563 10563 10564 10564 10564 10564 10564 10563 10561 10561 10560 10560 10559 10557 10555 10554 10552 10550 10548 10546 10543 10540 10538 10535 10532 10529 10526 10523 10520 10516
10347 10351 10355 10360 10366 10372 10378 10385 10394 10404 10413 10421 10429 10436 10442 10449 10456 10463 10468 10474 10480 10487 10494 10500 10504 10509 10516 10522 10525 10527 10532 10534 10533 10535 10540 10544 10546 10548 10551 10554 10558 10562 10562 10561 10563 10567 10570 10570 10569 10567 10565 10563 10561 10560 10559 10558 10558 10559 10559 10558 10558 10559 10560 10559 10557 10556 10555 10554 10552 10550 10548 10546 10545 10543 10541 10538 10535 10532 10530 10527 10524 10521 10518 10515 10511
10343 10345 10347 10349 10355 10364 10372 10378 10386 10394 10403 10411 10420 10428 10434 10440 10447 10453 10457 10463 10471 10479 10486 10491 10495 10501 10507 10510 10513 10517 10523 10526 10527 10529 10533 10536 10538 10540 10543 10546 10550 10553 10553 10555 10559 10562 10561 10561 10559 10559 10558 10556 10554 10554 10553 10552 10553 10554 10554 10553 10553 10554 10555 10554 10552 10551 10549 10548 10546 10544 10542 10540 10539 10538 10535 10532 10530 10527 10524 10522 10519 10516 10512 10509 10506
10338 10341 10343 10346 10351 10358 10365 10372 10379 10386 10395 10404 10412 10420 10426 10431 10437 10442 10448 10455 10463 10471 10478 10483 10487 10492 10496 10499 10503 10508 10513 10516 10519 10523 10527 10528 10529 10531 10534 10538 10542 10543 10544 10549 10554 10553 10551 10550 10550 10550 10550 10549 10548 10547 10547 10547 10547 10548 10548 10547 10547 10547 10548 10547 10546 10545 10544 10542 10541 10538 10535 10533 10532 10531 10529 10526 10524 10521 10519 10517 10514 10511 10508 10504 10501
10336 10338 10341 10344 10349 10354 10361 10367 10373 10380 10388 10396 10404 10411 10417 10423 10429 10435 10441 10448 10456 10463 10470 10474 10478 10481 10486 10490 10494 10499 10503 10508 10512 10517 10519 10520 10521 10524 10527 10531 10534 10536 10538 10542 10546 10546 10544 10542 10542 10542 10541 10541 10541 10542 10542 10541 10542 10542 10542 10541 10541 10541 10542 10541 10540 10539 10539 10538 10536 10534 10530 10527 10525 10524 10523 10521 10518 10516 10514 10512 10510 10507 10503 10500 10497
10333 10335 10338 10342 10346 10351 10357 10363 10369 10375 10382 10389 10396 10402 10408 10414 10421 10427 10433 10440 10448 10454 10459 10464 10467 10471 10477 10482 10487 10491 10496 10501 10505 10508 10511 10512 10513 10517 10522 10527 10531 10533 10534 10536 10537 10537 10536 10534 10534 10535 10534 10534 10536 10537 10536 10536 10536 10536 10535 10535 10536 10536 10535 10535 10535 10535 10535 10535 10533 10530 10527 10523 10519 10518 10517 10515 10513 10511 10510 10508 10505 10502 10499 10496 10493
10328 10331 10335 10339 10343 10347 10352 10358 10365 10371 10377 10383 10388 10394 10400 10406 10413 10419 10426 10433 10439 10445 10450 10454 10458 10463 10469 10475 10479 10483 10487 10492 10497 10500 10502 10503 10506 10512 10520 10524 10525 10526 10527 10528 10529 10529 10528 10527 10527 10528 10529 10530 10531 10531 10531 10531 10531 10530 10530 10530 10531 10530 10529 10529 10529 10531 10531 10531 10529 10525 10521 10517 10514 10512 10511 10510 10508 10506 10505 10503 10500 10498 10494 10491 10487
10324 10326 10330 10334 10338 10343 10348 10354 10360 10366 10371 10377 10382 10387 10393 10399 10405 10412 10419 10425 10430 10436 10441 10446 10450 10455 10461 10467 10471 10475 10479 10484 10488 10492 10495 10498 10503 10510 10514 10516 10516 10517 10519 10521 10522 10522 10522 10521 10521 10522 10524 10525 10526 10526 10525 10525 10525 10525 10526 10526 10526 10526 10524 10523 10524 10525 10525 10523 10520 10516 10514 10512 10509 10507 10506 10505 10503 10501 10500 10498 10496 10492 10488 10485 10482
10320 10323 10326 10329 10333 10337 10342 10348 10354 10359 10365 10371 10375 10380 10386 10392 10399 10405 10411 10416 10422 10427 10432 10437 10441 10447 10453 10459 10463 10467 10471 10476 10481 10486 10490 10494 10499 10504 10505 10506 10507 10509 10511 10513 10514 10515 10515 10515 10516 10518 10520 10521 10520 10519 10519 10519 10519 10519 10520 10521 10521 10521 10518 10516 10517 10518 10517 10514 10511 10509 10507 10506 10504 10502 10501 10500 10498 10496 10495 10494 10491 10487 10483 10480 10476
10318 10320 10323 10326 10328 10332 10336 10342 10347 10353 10359 10364 10369 10374 10380 10386 10392 10398 10403 10408 10413 10419 10423 10428 10433 10439 10444 10450 10455 10460 10465 10470 10475 10479 10484 10488 10492 10495 10496 10495 10496 10500 10503 10505 10507 10508 10508 10510 10512 10513 10515 10515 10515 10513 10512 10512 10512 10512 10513 10513 10513 10513 10511 10509 10510 10510 10508 10506 10505 10503 10501 10500 10499 10497 10496 10494 10493 10491 10491 10489 10486 10482 10478 10475 10471
10316 10318 10320 10323 10325 10328 10331 10336 10341 10346 10351 10357 10362 10368 10374 10380 10385 10391 10396 10401 10406 10411 10416 10421 10427 10432 10437 10443 10448 10453 10459 10464 10468 10472 10477 10481 10484 10487 10488 10487 10488 10492 10496 10499 10500 10501 10501 10503 10506 10507 10508 10508 10507 10505 10504 10504 10505 10505 10505 10505 10505 10504 10503 10503 10503 10502 10500 10499 10497 10496 10495 10494 10493 10491 10489 10488 10487 10486 10485 10483 10480 10476 10473 10469 10466
10314 10316 10318 10320 10322 10324 10328 10332 10336 10340 10345 10350 10356 10362 10368 10374 10379 10384 10389 10394 10400 10405 10410 10416 10421 10425 10430 10436 10441 10447 10452 10457 10462 10466 10471 10474 10477 10479 10481 10482 10484 10486 10490 10492 10493 10493 10494 10496 10499 10500 10501 10501 10499 10497 10496 10496 10497 10497 10498 10498 10497 10496 10495 10495 10496 10494 10492 10490 10489 10488 10487 10487 10486 10484 10482 10481 10480 10478 10477 10475 10472 10470 10467 10464 10461
10313 10314 10316 10318 10320 10322 10325 10329 10333 10337 10341 10346 10352 10357 10363 10368 10373 10377 10383 10389 10394 10398 10404 10409 10414 10418 10422 10427 10433 10440 10446 10450 10456 10461 10464 10467 10470 10473 10475 10476 10478 10480 10483 10485 10485 10486 10488 10490 10491 10492 10492 10492 10489 10488 10488 10488 10489 10490 10491 10491 10490 10489 10488 10488 10489 10487 10485 10483 10481 10479 10478 10478 10477 10476 10474 10473 10472 10471 10469 10467 10465 10462 10460 10458 10455
10310 10312 10314 10316 10318 10321 10324 10327 10331 10335 10339 10344 10349 10354 10358 10363 10367 10371 10377 10382 10387 10391 10396 10401 10405 10410 10414 10419 10426 10433 10439 10444 10450 10453 10456 10460 10464 10466 10467 10469 10470 10472 10475 10476 10478 10480 10482 10482 10481 10481 10481 10480 10479 10479 10480 10481 10482 10483 10483 10482 10482 10482 10482 10481 10481 10479 10478 10477 10475 10472 10470 10469 10469 10468 10467 10466 10465 10463 10461 10459 10457 10455 10453 10451 10449
10307 10309 10311 10313 10315 10317 10320 10323 10327 10331 10336 10340 10345 10350 10354 10358 10361 10365 10370 10376 10380 10384 10387 10392 10397 10403 10408 10414 10421 10426 10431 10437 10442 10445 10448 10452 10455 10456 10457 10460 10462 10464 10466 10468 10469 10472 10474 10474 10472 10470 10469 10470 10470 10470 10472 10474 10475 10475 10475 10475 10475 10475 10475 10474 10472 10471 10471 10471 10469 10466 10463 10462 10461 10460 10459 10458 10456 10454 10452 10450 10448 10447 10446 10444 10442
10303 10305 10307 10309 10311 10313 10316 10319 10322 10326 10330 10335 10339 10344 10348 10352 10355 10359 10364 10369 10374 10376 10379 10385 10392 10398 10404 10410 10415 10419 10424 10429 10433 10436 10439 10442 10445 10447 10449 10451 10453 10455 10458 10459 10461 10463 10466 10465 10463 10460 10460 10461 10462 10463 10464 10466 10467 10467 10467 10467 10467 10467 10467 10466 10464 10463 10464 10464 10462 10459 10456 10454 10452 10451 10449 10448 10446 10444 10443 10442 10440 10439 10438 10437 10435
10298 10300 10303 10305 10307 10309 10312 10315 10318 10321 10324 10328 10333 10337 10341 10345 10349 10353 10358 10362 10366 10369 10374 10381 10388 10393 10398 10404 10408 10412 10417 10422 10425 10427 10431 10434 10437 10441 10443 10445 10446 10448 10450 10452 10454 10455 10456 10454 10452 10452 10452 10454 10455 10456 10457 10458 10459 10460 10460 10459 10459 10459 10459 10458 10457 10456 10456 10456 10454 10451 10449 10446 10443 10442 10441 10440 10438 10436 10435 10434 10432 10430 10430 10429 10427
10292 10295 10298 10301 10303 10305 10307 10309 10313 10316 10319 10322 10326 10330 10333 10338 10342 10346 10351 10355 10359 10363 10369 10376 10382 10386 10391 10396 10400 10405 10409 10414 10417 10420 10424 10427 10430 10433 10436 10438 10440 10441 10443 10444 10444 10445 10445 10444 10443 10443 10445 10446 10448 10449 10449 10450 10451 10452 10452 10452 10451 10451 10451 10450 10449 10448 10448 10447 10446 10443 10441 10438 10435 10434 10434 10433 10430 10429 10427 10426 10424 10423 10422 10421 10420
10287 10290 10294 10296 10297 10299 10302 10304 10308 10311 10313 10316 10319 10323 10327 10331 10336 10340 10344 10349 10353 10357 10363 10369 10375 10379 10383 10388 10393 10397 10401 10405 10410 10413 10416 10420 10422 10425 10427 10429 10430 10432 10433 10433 10433 10433 10433 10434 10434 10436 10437 10439 10441 10442 10442 10442 10443 10444 10444 10444 10444 10443 10442 10441 10440 10439 10440 10440 10438 10435 10432 10429 10427 10427 10426 10424 10423 10421 10419 10418 10417 10416 10415 10414 10413
10283 10286 10290 10291 10291 10294 10297 10299 10302 10306 10309 10310 10313 10316 10320 10325 10329 10333 10337 10342 10346 10351 10356 10362 10367 10371 10375 10380 10385 10388 10392 10397 10402 10405 10408 10411 10414 10416 10418 10419 10421 10422 10423 10424 10424 10424 10425 10426 10428 10429 10431 10432 10433 10434 10435 10435 10435 10436 10437 10437 10436 10435 10434 10433 10431 10430 10431 10431 10429 10426 10423 10421 10420 10419 10418 10417 10415 10413 10412 10410 10409 10409 10408 10407 10406
10277 10281 10284 10285 10286 10289 10292 10294 10296 10300 10303 10305 10308 10310 10314 10318 10322 10326 10331 10335 10340 10345 10349 10354 10359 10363 10367 10372 10376 10380 10384 10389 10393 10397 10400 10403 10406 10408 10409 10410 10412 10414 10415 10416 10417 10417 10418 10420 10421 10422 10423 10424 10425 10426 10427 10428 10428 10428 10429 10429 10429 10428 10427 10425 10424 10423 10422 10421 10419 10417 10415 10414 10413 10412 10411 10409 10407 10406 10404 10403 10402 10402 10401 10400 10399
10271 10274 10277 10278 10281 10283 10286 10288 10290 10293 10297 10300 10302 10304 10307 10310 10315 10319 10323 10328 10333 10337 10342 10347 10351 10355 10359 10363 10367 10371 10375 10379 10384 10388 10391 10394 10397 10400 10401 10402 10404 10406 10408 10409 10410 10410 10412 10413 10413 10414 10414 10415 10416 10417 10419 10420 10420 10420 10421 10421 10420 10420 10420 10418 10417 10415 10415 10413 10411 10409 10407 10406 10405 10405 10403 10401 10400 10399 10397 10397 10396 10395 10393 10392 10391